sat.trackr.live / text

‹ back to catalog

STARLINK-30798

NORAD 58196 · 2023-167X

PAYLOAD ACTIVE UNKNOWN

§ Identity

Operator
Country
US
Launch date
2023-10-30
Launch site
AFETR
Launch vehicle
Mass (kg)
RCS (m²)

Purposes: comms

External: N2YO · Heavens-Above · Gunter

§ Orbital elements

Epoch: 2026-09-20T00:32:50.482464Z

Period
94.27 min
Inclination
43.0029°
Eccentricity
0.0001734
Mean motion
15.27580093 rev/d
Perigee alt
481.9 km
Apogee alt
484.2 km
Semi-major
6,861.2 km
B*
2.6754e-5
RAAN
126.0934°
Arg perigee
266.2787°
Mean anomaly
93.7867°
Rev number
16,070

§ Raw data

STARLINK-307981 58196U 23167X   26263.02280651  .00000474  00000+0  26754-4 0  99932 58196  43.0029 126.0934 0001734 266.2787  93.7867 15.27580093160701

JSON: /api/v1/satellites/58196 · /tle

For live sub-satellite position, see the globe view (requires WebGL).

§ Visibility from observer

Set your observer location to see the next 7 days of passes ≥ 10°. The values pass through the URL so the page stays shareable.

No JS? Fill the form by hand. The geolocation button needs JavaScript.